Weather History for Grand Rapids, MI

Change the Weather History Date:

Wednesday, April 11, 2012

  Actual Average Record
Temperature  
Mean Temperature 46 °F 46 °F  
Max Temperature 57 °F 56 °F 82 °F (1977)
Min Temperature 34 °F 36 °F 14 °F (1973)
Degree Days  
Heating Degree Days 19 19  
Month to date heating degree days 193 230  
Since 1 July heating degree days 4793 5917  
Cooling Degree Days 0 0  
Month to date cooling degree days 0 0  
Year to date cooling degree days 26 1  
Moisture  
Dew Point 27 °F    
Average Humidity 52    
Maximum Humidity 75    
Minimum Humidity 28    
Precipitation  
Precipitation 0.00 in 0.11 in 1.51 in (2013)
Month to date precipitation 0.60 1.18  
Year to date precipitation 8.94 7.43  
Snow  
Snow 0.00 in 0.10 in 4.60 in (2007)
Month to date snowfall T 1.2  
Since 1 July snowfall 51.2 74.3  
Snow Depth 0.00 in    
Sea Level Pressure  
Sea Level Pressure 30.19 in    
Wind  
Wind Speed 9 mph (NW)    
Max Wind Speed 20 mph    
Max Gust Speed 24 mph    
Visibility 10 miles    
Events      
T = Trace of Precipitation, MM = Missing Value Source: NWS Daily Summary

Daily Weather History Graph

Daily Weather History Graph

Search for Another Location

Airport:

Trip Planner

Search our weather history database for the weather conditions in past years. The results will help you decide how hot, cold, wet, or windy it might be!

Date:

Astronomy

Apr. 11, 2012 Rise Set
Actual Time 7:06 AM EDT 8:20 PM EDT
Civil Twilight 6:37 AM EDT 8:49 PM EDT
Nautical Twilight 6:02 AM EDT 9:24 PM EDT
Astronomical Twilight 5:25 AM EDT 10:01 PM EDT
Moon 1:20 AM EDT (4/11) 10:48 AM EDT (4/11)
Length of Visible Light 14h 12m
Length of Day
13h 14m
Waning Gibbous, 69% of the Moon is Illuminated
Apr 11
Waning Gibbous
Apr 13
Last Quarter
Apr 21
New
Apr 29
First Quarter
May 5
Full

Hourly Weather History & Observations

Time (EDT) Temp. Windchill Dew Point Humidity Pressure Visibility Wind Dir Wind Speed Gust Speed Precip Events Conditions
12:53 AM 37.0 °F 29.3 °F 25.0 °F 62% 30.08 in 10.0 mi NW 11.5 mph - N/A   Mostly Cloudy
1:53 AM 37.0 °F 28.9 °F 26.1 °F 65% 30.08 in 10.0 mi NNW 12.7 mph - N/A   Clear
2:53 AM 37.0 °F 28.9 °F 26.1 °F 65% 30.08 in 10.0 mi North 12.7 mph - N/A   Overcast
3:53 AM 37.0 °F 29.8 °F 26.1 °F 65% 30.09 in 10.0 mi NNW 10.4 mph - N/A   Overcast
4:53 AM 37.0 °F 29.3 °F 27.0 °F 67% 30.10 in 10.0 mi NW 11.5 mph - N/A   Overcast
5:53 AM 35.1 °F 28.6 °F 26.1 °F 70% 30.12 in 10.0 mi NW 8.1 mph - N/A   Scattered Clouds
6:53 AM 34.0 °F 27.2 °F 26.1 °F 73% 30.15 in 10.0 mi NW 8.1 mph - N/A   Partly Cloudy
7:53 AM 36.0 °F 32.1 °F 27.0 °F 70% 30.17 in 10.0 mi NNW 4.6 mph - N/A   Partly Cloudy
8:53 AM 39.0 °F 32.8 °F 28.0 °F 65% 30.20 in 10.0 mi North 9.2 mph - N/A   Partly Cloudy
9:53 AM 43.0 °F 38.2 °F 30.0 °F 60% 30.21 in 10.0 mi North 8.1 mph - N/A   Partly Cloudy
10:53 AM 46.0 °F 41.0 °F 28.9 °F 51% 30.22 in 10.0 mi NNE 10.4 mph - N/A   Partly Cloudy
11:53 AM 48.9 °F - 28.0 °F 44% 30.23 in 10.0 mi North 8.1 mph - N/A   Partly Cloudy
12:53 PM 50.0 °F - 28.0 °F 43% 30.23 in 10.0 mi North 11.5 mph 16.1 mph N/A   Partly Cloudy
1:53 PM 53.1 °F - 27.0 °F 37% 30.22 in 10.0 mi Variable 6.9 mph - N/A   Partly Cloudy
2:53 PM 54.0 °F - 26.1 °F 34% 30.22 in 10.0 mi WNW 4.6 mph - N/A   Scattered Clouds
3:53 PM 55.9 °F - 26.1 °F 32% 30.21 in 10.0 mi WNW 9.2 mph - N/A   Mostly Cloudy
4:53 PM 57.0 °F - 25.0 °F 29% 30.21 in 10.0 mi West 10.4 mph - N/A   Mostly Cloudy
5:53 PM 52.0 °F - 28.9 °F 41% 30.22 in 10.0 mi West 13.8 mph - N/A   Scattered Clouds
6:53 PM 52.0 °F - 28.9 °F 41% 30.22 in 10.0 mi West 16.1 mph - N/A   Scattered Clouds
7:53 PM 48.9 °F - 27.0 °F 43% 30.23 in 10.0 mi West 15.0 mph - N/A   Scattered Clouds
8:53 PM 46.0 °F 41.9 °F 25.0 °F 44% 30.24 in 10.0 mi West 8.1 mph - N/A   Scattered Clouds
9:53 PM 45.0 °F 41.2 °F 26.1 °F 48% 30.25 in 10.0 mi WNW 6.9 mph - N/A   Partly Cloudy
10:53 PM 43.0 °F 40.3 °F 27.0 °F 53% 30.25 in 10.0 mi NW 4.6 mph - N/A   Clear
11:53 PM 41.0 °F 38.0 °F 28.0 °F 60% 30.25 in 10.0 mi WNW 4.6 mph - N/A   Clear